CDT,Max TemperatureF,Mean TemperatureF,Min TemperatureF,Max Dew PointF,MeanDew PointF,Min DewpointF,Max Humidity, Mean Humidity, Min Humidity, Max Sea Level PressureIn, Mean Sea Level PressureIn, Min Sea Level PressureIn, Max VisibilityMiles, Mean VisibilityMiles, Min VisibilityMiles, Max Wind SpeedMPH, Mean Wind SpeedMPH, Max Gust SpeedMPH,PrecipitationIn, CloudCover, Events, WindDirDegrees
2012-10-1,67,59,50,48,46,43,86,64,42,29.87,29.84,29.81,10,10,10,15,5,17,0.00,0,,60
2012-10-2,74,60,45,47,43,41,86,60,33,29.89,29.85,29.82,10,9,3,14,6,18,0.00,0,,11
2012-10-3,70,63,55,56,51,48,78,65,51,30.02,29.95,29.88,10,10,2,13,5,17,T,5,,182
2012-10-4,71,59,47,56,49,43,93,75,56,30.23,30.13,30.03,10,10,2,22,11,25,0.32,5,Rain-Thunderstorm,274
2012-10-5,48,42,36,46,38,31,89,74,58,30.26,30.22,30.17,10,9,5,20,8,23,0.27,6,Rain-Thunderstorm,320
2012-10-6,46,40,34,33,30,28,89,71,53,30.29,30.26,30.21,10,10,10,20,8,25,0.00,2,,311
2012-10-7,52,43,33,31,28,24,82,59,35,30.29,30.23,30.17,10,10,10,15,6,21,0.00,1,,273
2012-10-8,60,47,33,34,32,28,82,59,35,30.17,30.10,30.01,10,10,10,21,10,33,0.00,0,,199
2012-10-9,66,55,43,45,41,34,92,67,42,30.05,29.96,29.87,10,10,8,24,11,30,0.03,3,Rain,225
2012-10-10,56,46,35,39,32,29,89,62,35,30.26,30.18,30.06,10,10,10,16,7,25,0.00,0,,263
2012-10-11,68,53,37,47,39,31,77,59,40,30.22,30.15,30.08,10,10,10,17,9,24,0.00,0,,199
2012-10-12,60,52,44,45,38,33,71,59,47,30.40,30.29,30.19,10,10,10,20,10,25,0.00,2,,88
2012-10-13,72,63,53,64,59,45,100,86,71,30.14,29.92,29.74,10,5,1,31,12,40,1.92,6,Rain-Thunderstorm,170
2012-10-14,69,59,48,63,57,45,93,83,72,29.92,29.68,29.57,10,8,2,28,12,36,0.25,7,Rain,219
2012-10-15,66,55,43,44,42,40,89,65,40,30.02,29.96,29.92,10,8,0,10,5,13,0.00,0,,266
2012-10-16,78,63,48,53,47,42,80,58,36,29.90,29.68,29.52,10,10,10,24,12,32,0.00,0,,183
2012-10-17,64,57,49,58,53,39,90,71,52,29.55,29.45,29.38,10,7,1,30,12,38,0.48,5,Rain-Thunderstorm,230
2012-10-18,55,50,45,43,36,30,92,67,41,29.54,29.51,29.47,10,10,8,29,16,37,0.10,5,Rain,247
2012-10-19,54,49,43,45,43,39,93,80,66,29.77,29.62,29.47,10,8,2,20,12,30,0.05,8,Rain,274
2012-10-20,59,53,46,46,44,42,93,78,62,29.90,29.84,29.77,10,10,7,12,5,14,0.00,6,,251
2012-10-21,77,61,45,60,52,43,86,70,54,29.92,29.88,29.84,10,10,9,14,8,17,0.00,1,,143
2012-10-22,80,72,64,67,64,61,93,80,67,29.91,29.86,29.82,10,8,0,24,10,32,1.00,5,Fog-Rain-Thunderstorm,188
2012-10-23,76,71,65,65,63,60,93,79,64,29.91,29.85,29.80,10,10,6,18,10,25,0.08,3,Rain,196
2012-10-24,81,73,65,65,61,58,84,71,58,29.90,29.84,29.78,10,10,10,21,12,28,0.00,1,,187
2012-10-25,75,57,39,63,49,32,89,77,64,30.21,29.88,29.70,10,8,2,31,18,40,0.16,6,Rain,281
2012-10-26,48,41,33,30,28,27,75,62,49,30.39,30.35,30.24,10,10,10,23,12,31,0.00,1,,345
2012-10-27,47,37,27,28,27,24,85,67,49,30.40,30.33,30.28,10,10,10,15,8,18,0.00,0,,2
2012-10-28,50,40,29,33,28,25,85,67,49,30.34,30.30,30.27,10,10,9,13,7,20,0.00,1,,6
2012-10-29,52,40,28,33,27,25,85,60,35,30.37,30.28,30.17,10,10,3,10,5,15,0.00,1,,8
2012-10-30,56,43,30,28,26,23,78,55,32,30.16,30.02,29.92,10,10,9,24,11,31,0.00,0,Rain,329
2012-10-31,53,42,30,27,24,19,78,52,26,30.01,29.98,29.94,10,10,10,20,9,23,0.00,0,,305